Location: Corralito
(10.2667°N, 66.9500°W)
Time: 10:06:53
(UTC+00:00)

Haruka - Pass Details

Date: 04 December 2023
Orbit: 529 x 21179 km, 31.2° (Epoch: 24 February)

Event Time Altitude Azimuth Distance (km) Brightness Sun altitude
Rises 22:34:02 0° 292° (WNW) 11,584 9.8 -7.6°
Reaches altitude 10° 22:41:28 10° 289° (WNW) 12,208 9.9 -9.3°
Maximum altitude 00:11:44 42° 252° (WSW) 21,218 10.6 -30.1°
Drops below altitude 10° 03:46:10 10° 151° (SSE) 7,787 8.1 -75.9°
Sets 03:51:42 0° 137° (SE) 7,318 8.1 -76.5°
